Year,Month,Day,Hour,Minute,Value (Times are PST for temperature in C)
2018,04,23,00,00,5.90
2018,04,23,00,01,5.90
2018,04,23,00,02,5.90
2018,04,23,00,03,5.90
2018,04,23,00,04,5.80
2018,04,23,00,05,5.80
2018,04,23,00,06,5.80
2018,04,23,00,07,5.80
2018,04,23,00,08,5.80
2018,04,23,00,09,5.80
2018,04,23,00,10,5.80
2018,04,23,00,11,5.80
2018,04,23,00,12,5.80
2018,04,23,00,13,5.80
2018,04,23,00,14,5.70
2018,04,23,00,15,5.70
2018,04,23,00,16,5.70
2018,04,23,00,17,5.70
2018,04,23,00,18,5.70
2018,04,23,00,19,5.70
2018,04,23,00,20,5.70
2018,04,23,00,21,5.80
2018,04,23,00,22,5.80
2018,04,23,00,23,5.80
2018,04,23,00,24,5.80
2018,04,23,00,25,5.80
2018,04,23,00,26,5.90
2018,04,23,00,27,5.90
2018,04,23,00,28,5.90
2018,04,23,00,29,5.90
2018,04,23,00,30,5.90
2018,04,23,00,31,6.00
2018,04,23,00,32,6.00
2018,04,23,00,33,6.00
2018,04,23,00,34,6.10
2018,04,23,00,35,6.10
2018,04,23,00,36,6.10
2018,04,23,00,37,6.10
2018,04,23,00,38,6.20
2018,04,23,00,39,6.20
2018,04,23,00,40,6.20
2018,04,23,00,41,6.20
2018,04,23,00,42,6.30
2018,04,23,00,43,6.30
2018,04,23,00,44,6.30
2018,04,23,00,45,6.30
2018,04,23,00,46,6.30
2018,04,23,00,47,6.30
2018,04,23,00,48,6.30
2018,04,23,00,49,6.30
2018,04,23,00,50,6.30
2018,04,23,00,51,6.30
2018,04,23,00,52,6.30
2018,04,23,00,53,6.30
2018,04,23,00,54,6.30
2018,04,23,00,55,6.30
2018,04,23,00,56,6.30
2018,04,23,00,57,6.30
2018,04,23,00,58,6.30
2018,04,23,00,59,6.30
2018,04,23,01,00,6.30
2018,04,23,01,01,6.30
2018,04,23,01,02,6.30
2018,04,23,01,03,6.20
2018,04,23,01,04,6.20
2018,04,23,01,05,6.20
2018,04,23,01,06,6.20
2018,04,23,01,07,6.10
2018,04,23,01,08,6.20
2018,04,23,01,09,6.20
2018,04,23,01,10,6.20
2018,04,23,01,11,6.20
2018,04,23,01,12,6.30
2018,04,23,01,13,6.30
2018,04,23,01,14,6.30
2018,04,23,01,15,6.30
2018,04,23,01,16,6.40
2018,04,23,01,17,6.40
2018,04,23,01,18,6.40
2018,04,23,01,19,6.40
2018,04,23,01,20,6.40
2018,04,23,01,21,6.30
2018,04,23,01,22,6.30
2018,04,23,01,23,6.30
2018,04,23,01,24,6.30
2018,04,23,01,25,6.30
2018,04,23,01,26,6.20
2018,04,23,01,27,6.20
2018,04,23,01,28,6.20
2018,04,23,01,29,6.10
2018,04,23,01,30,6.10
2018,04,23,01,31,6.00
2018,04,23,01,32,6.00
2018,04,23,01,33,5.90
2018,04,23,01,34,5.90
2018,04,23,01,35,5.90
2018,04,23,01,36,5.90
2018,04,23,01,37,5.80
2018,04,23,01,38,5.80
2018,04,23,01,39,5.80
2018,04,23,01,40,5.80
2018,04,23,01,41,5.80
2018,04,23,01,42,5.70
2018,04,23,01,43,5.70
2018,04,23,01,44,5.70
2018,04,23,01,45,5.80
2018,04,23,01,46,5.80
2018,04,23,01,47,5.80
2018,04,23,01,48,5.80
2018,04,23,01,49,5.80
2018,04,23,01,50,5.80
2018,04,23,01,51,5.80
2018,04,23,01,52,5.80
2018,04,23,01,53,5.80
2018,04,23,01,54,5.80
2018,04,23,01,55,5.80
2018,04,23,01,56,5.90
2018,04,23,01,57,5.90
2018,04,23,01,58,5.90
2018,04,23,01,59,5.90
2018,04,23,02,00,5.90
2018,04,23,02,01,5.90
2018,04,23,02,02,5.90
2018,04,23,02,03,5.90
2018,04,23,02,04,5.90
2018,04,23,02,05,5.90
2018,04,23,02,06,5.90
2018,04,23,02,07,5.90
2018,04,23,02,08,5.90
2018,04,23,02,09,5.90
2018,04,23,02,10,5.90
2018,04,23,02,11,6.00
2018,04,23,02,12,6.10
2018,04,23,02,13,6.10
2018,04,23,02,14,6.10
2018,04,23,02,15,6.10
2018,04,23,02,16,6.00
2018,04,23,02,17,6.00
2018,04,23,02,18,6.00
2018,04,23,02,19,6.00
2018,04,23,02,20,6.00
2018,04,23,02,21,6.00
2018,04,23,02,22,6.00
2018,04,23,02,23,6.00
2018,04,23,02,24,6.10
2018,04,23,02,25,6.00
2018,04,23,02,26,6.00
2018,04,23,02,27,6.00
2018,04,23,02,28,6.00
2018,04,23,02,29,5.90
2018,04,23,02,30,5.90
2018,04,23,02,31,5.90
2018,04,23,02,32,5.90
2018,04,23,02,33,5.90
2018,04,23,02,34,5.90
2018,04,23,02,35,5.80
2018,04,23,02,36,5.80
2018,04,23,02,37,5.70
2018,04,23,02,38,5.70
2018,04,23,02,39,5.60
2018,04,23,02,40,5.60
2018,04,23,02,41,5.50
2018,04,23,02,42,5.40
2018,04,23,02,43,5.30
2018,04,23,02,44,5.30
2018,04,23,02,45,5.20
2018,04,23,02,46,5.20
2018,04,23,02,47,5.10
2018,04,23,02,48,5.10
2018,04,23,02,49,5.00
2018,04,23,02,50,4.90
2018,04,23,02,51,4.90
2018,04,23,02,52,4.80
2018,04,23,02,53,4.80
2018,04,23,02,54,4.80
2018,04,23,02,55,4.80
2018,04,23,02,56,4.80
2018,04,23,02,57,4.80
2018,04,23,02,58,4.90
2018,04,23,02,59,4.90
2018,04,23,03,00,4.90
2018,04,23,03,01,5.00
2018,04,23,03,02,5.00
2018,04,23,03,03,5.00
2018,04,23,03,04,5.10
2018,04,23,03,05,5.10
2018,04,23,03,06,5.10
2018,04,23,03,07,5.10
2018,04,23,03,08,5.10
2018,04,23,03,09,5.20
2018,04,23,03,10,5.20
2018,04,23,03,11,5.30
2018,04,23,03,12,5.40
2018,04,23,03,13,5.40
2018,04,23,03,14,5.40
2018,04,23,03,15,5.40
2018,04,23,03,16,5.50
2018,04,23,03,17,5.50
2018,04,23,03,18,5.50
2018,04,23,03,19,5.50
2018,04,23,03,20,5.50
2018,04,23,03,21,5.50
2018,04,23,03,22,5.50
2018,04,23,03,23,5.50
2018,04,23,03,24,5.50
2018,04,23,03,25,5.50
2018,04,23,03,26,5.40
2018,04,23,03,27,5.40
2018,04,23,03,28,5.40
2018,04,23,03,29,5.40
2018,04,23,03,30,5.40
2018,04,23,03,31,5.40
2018,04,23,03,32,5.40
2018,04,23,03,33,5.40
2018,04,23,03,34,5.40
2018,04,23,03,35,5.40
2018,04,23,03,36,5.30
2018,04,23,03,37,5.30
2018,04,23,03,38,5.30
2018,04,23,03,39,5.30
2018,04,23,03,40,5.30
2018,04,23,03,41,5.30
2018,04,23,03,42,5.30
2018,04,23,03,43,5.30
2018,04,23,03,44,5.20
2018,04,23,03,45,5.20
2018,04,23,03,46,5.10
2018,04,23,03,47,5.10
2018,04,23,03,48,5.00
2018,04,23,03,49,4.90
2018,04,23,03,50,4.90
2018,04,23,03,51,4.80
2018,04,23,03,52,4.80
2018,04,23,03,53,4.70
2018,04,23,03,54,4.70
2018,04,23,03,55,4.70
2018,04,23,03,56,4.60
2018,04,23,03,57,4.60
2018,04,23,03,58,4.60
2018,04,23,03,59,4.60
2018,04,23,04,00,4.60
2018,04,23,04,01,4.60
2018,04,23,04,02,4.60
2018,04,23,04,03,4.60
2018,04,23,04,04,4.60
2018,04,23,04,05,4.60
2018,04,23,04,06,4.60
2018,04,23,04,07,4.60
2018,04,23,04,08,4.70
2018,04,23,04,09,4.70
2018,04,23,04,10,4.70
2018,04,23,04,11,4.70
2018,04,23,04,12,4.70
2018,04,23,04,13,4.70
2018,04,23,04,14,4.70
2018,04,23,04,15,4.60
2018,04,23,04,16,4.60
2018,04,23,04,17,4.60
2018,04,23,04,18,4.60
2018,04,23,04,19,4.50
2018,04,23,04,20,4.50
2018,04,23,04,21,4.40
2018,04,23,04,22,4.40
2018,04,23,04,23,4.40
2018,04,23,04,24,4.40
2018,04,23,04,25,4.30
2018,04,23,04,26,4.30
2018,04,23,04,27,4.30
2018,04,23,04,28,4.30
2018,04,23,04,29,4.40
2018,04,23,04,30,4.40
2018,04,23,04,31,4.40
2018,04,23,04,32,4.50
2018,04,23,04,33,4.50
2018,04,23,04,34,4.50
2018,04,23,04,35,4.60
2018,04,23,04,36,4.60
2018,04,23,04,37,4.60
2018,04,23,04,38,4.60
2018,04,23,04,39,4.70
2018,04,23,04,40,4.80
2018,04,23,04,41,4.80
2018,04,23,04,42,4.90
2018,04,23,04,43,4.90
2018,04,23,04,44,4.90
2018,04,23,04,45,5.00
2018,04,23,04,46,5.00
2018,04,23,04,47,5.00
2018,04,23,04,48,5.00
2018,04,23,04,49,5.00
2018,04,23,04,50,5.00
2018,04,23,04,51,5.00
2018,04,23,04,52,4.90
2018,04,23,04,53,4.90
2018,04,23,04,54,4.90
2018,04,23,04,55,4.80
2018,04,23,04,56,4.80
2018,04,23,04,57,4.80
2018,04,23,04,58,4.70
2018,04,23,04,59,4.70
2018,04,23,05,00,4.70
2018,04,23,05,01,4.70
2018,04,23,05,02,4.70
2018,04,23,05,03,4.60
2018,04,23,05,04,4.60
2018,04,23,05,05,4.60
2018,04,23,05,06,4.60
2018,04,23,05,07,4.50
2018,04,23,05,08,4.50
2018,04,23,05,09,4.40
2018,04,23,05,10,4.40
2018,04,23,05,11,4.40
2018,04,23,05,12,4.30
2018,04,23,05,13,4.30
2018,04,23,05,14,4.20
2018,04,23,05,15,4.20
2018,04,23,05,16,4.20
2018,04,23,05,17,4.10
2018,04,23,05,18,4.10
2018,04,23,05,19,4.10
2018,04,23,05,20,4.10
2018,04,23,05,21,4.10
2018,04,23,05,22,4.10
2018,04,23,05,23,4.10
2018,04,23,05,24,4.10
2018,04,23,05,25,4.10
2018,04,23,05,26,4.10
2018,04,23,05,27,4.10
2018,04,23,05,28,4.10
2018,04,23,05,29,4.10
2018,04,23,05,30,4.10
2018,04,23,05,31,4.10
2018,04,23,05,32,4.00
2018,04,23,05,33,4.00
2018,04,23,05,34,4.00
2018,04,23,05,35,3.90
2018,04,23,05,36,3.80
2018,04,23,05,37,3.80
2018,04,23,05,38,3.70
2018,04,23,05,39,3.60
2018,04,23,05,40,3.50
2018,04,23,05,41,3.50
2018,04,23,05,42,3.40
2018,04,23,05,43,3.30
2018,04,23,05,44,3.30
2018,04,23,05,45,3.20
2018,04,23,05,46,3.10
2018,04,23,05,47,3.10
2018,04,23,05,48,3.10
2018,04,23,05,49,3.00
2018,04,23,05,50,2.90
2018,04,23,05,51,2.90
2018,04,23,05,52,2.90
2018,04,23,05,53,2.90
2018,04,23,05,54,3.00
2018,04,23,05,55,3.00
2018,04,23,05,56,3.00
2018,04,23,05,57,3.00
2018,04,23,05,58,3.10
2018,04,23,05,59,3.20
2018,04,23,06,00,3.20
2018,04,23,06,01,3.30
2018,04,23,06,02,3.30
2018,04,23,06,03,3.30
2018,04,23,06,04,3.40
2018,04,23,06,05,3.40
2018,04,23,06,06,3.40
2018,04,23,06,07,3.40
2018,04,23,06,08,3.40
2018,04,23,06,09,3.40
2018,04,23,06,10,3.30
2018,04,23,06,11,3.30
2018,04,23,06,12,3.30
2018,04,23,06,13,3.30
2018,04,23,06,14,3.30
2018,04,23,06,15,3.30
2018,04,23,06,16,3.20
2018,04,23,06,17,3.20
2018,04,23,06,18,3.20
2018,04,23,06,19,3.20
2018,04,23,06,20,3.20
2018,04,23,06,21,3.20
2018,04,23,06,22,3.20
2018,04,23,06,23,3.20
2018,04,23,06,24,3.30
2018,04,23,06,25,3.30
2018,04,23,06,26,3.30
2018,04,23,06,27,3.30
2018,04,23,06,28,3.30
2018,04,23,06,29,3.30
2018,04,23,06,30,3.30
2018,04,23,06,31,3.30
2018,04,23,06,32,3.30
2018,04,23,06,33,3.30
2018,04,23,06,34,3.30
2018,04,23,06,35,3.30
2018,04,23,06,36,3.30
2018,04,23,06,37,3.20
2018,04,23,06,38,3.20
2018,04,23,06,39,3.20
2018,04,23,06,40,3.10
2018,04,23,06,41,3.10
2018,04,23,06,42,3.10
2018,04,23,06,43,3.10
2018,04,23,06,44,3.10
2018,04,23,06,45,3.10
2018,04,23,06,46,3.10
2018,04,23,06,47,3.10
2018,04,23,06,48,3.20
2018,04,23,06,49,3.20
2018,04,23,06,50,3.20
2018,04,23,06,51,3.30
2018,04,23,06,52,3.30
2018,04,23,06,53,3.30
2018,04,23,06,54,3.30
2018,04,23,06,55,3.40
2018,04,23,06,56,3.40
2018,04,23,06,57,3.50
2018,04,23,06,58,3.50
2018,04,23,06,59,3.60
2018,04,23,07,00,3.60
2018,04,23,07,01,3.70
2018,04,23,07,02,3.80
2018,04,23,07,03,3.80
2018,04,23,07,04,3.90
2018,04,23,07,05,4.00
2018,04,23,07,06,4.00
2018,04,23,07,07,4.10
2018,04,23,07,08,4.10
2018,04,23,07,09,4.20
2018,04,23,07,10,4.30
2018,04,23,07,11,4.30
2018,04,23,07,12,4.40
2018,04,23,07,13,4.40
2018,04,23,07,14,4.50
2018,04,23,07,15,4.50
2018,04,23,07,16,4.60
2018,04,23,07,17,4.60
2018,04,23,07,18,4.70
2018,04,23,07,19,4.70
2018,04,23,07,20,4.70
2018,04,23,07,21,4.80
2018,04,23,07,22,4.80
2018,04,23,07,23,4.90
2018,04,23,07,24,5.00
2018,04,23,07,25,5.10
2018,04,23,07,26,5.10
2018,04,23,07,27,5.30
2018,04,23,07,28,5.40
2018,04,23,07,29,5.50
2018,04,23,07,30,5.60
2018,04,23,07,31,5.70
2018,04,23,07,32,5.80
2018,04,23,07,33,5.90
2018,04,23,07,34,6.10
2018,04,23,07,35,6.20
2018,04,23,07,36,6.30
2018,04,23,07,37,6.40
2018,04,23,07,38,6.60
2018,04,23,07,39,6.80
2018,04,23,07,40,6.90
2018,04,23,07,41,7.20
2018,04,23,07,42,7.30
2018,04,23,07,43,7.50
2018,04,23,07,44,7.60
2018,04,23,07,45,7.80
2018,04,23,07,46,7.90
2018,04,23,07,47,8.00
2018,04,23,07,48,8.10
2018,04,23,07,49,8.20
2018,04,23,07,50,8.20
2018,04,23,07,51,8.30
2018,04,23,07,52,8.40
2018,04,23,07,53,8.40
2018,04,23,07,54,8.50
2018,04,23,07,55,8.60
2018,04,23,07,56,8.70
2018,04,23,07,57,8.70
2018,04,23,07,58,8.80
2018,04,23,07,59,8.80
2018,04,23,08,00,8.90
2018,04,23,08,01,8.90
2018,04,23,08,02,9.00
2018,04,23,08,03,9.00
2018,04,23,08,04,9.00
2018,04,23,08,05,9.10
2018,04,23,08,06,9.20
2018,04,23,08,07,9.30
2018,04,23,08,08,9.40
2018,04,23,08,09,9.50
2018,04,23,08,10,9.60
2018,04,23,08,11,9.70
2018,04,23,08,12,9.80
2018,04,23,08,13,10.00
2018,04,23,08,14,10.10
2018,04,23,08,15,10.20
2018,04,23,08,16,10.30
2018,04,23,08,17,10.40
2018,04,23,08,18,10.50
2018,04,23,08,19,10.60
2018,04,23,08,20,10.70
2018,04,23,08,21,10.70
2018,04,23,08,22,10.80
2018,04,23,08,23,10.80
2018,04,23,08,24,10.80
2018,04,23,08,25,10.80
2018,04,23,08,26,10.80
2018,04,23,08,27,10.90
2018,04,23,08,28,10.90
2018,04,23,08,29,10.90
2018,04,23,08,30,10.90
2018,04,23,08,31,10.90
2018,04,23,08,32,10.80
2018,04,23,08,33,10.80
2018,04,23,08,34,10.80
2018,04,23,08,35,10.80
2018,04,23,08,36,10.70
2018,04,23,08,37,10.70
2018,04,23,08,38,10.70
2018,04,23,08,39,10.60
2018,04,23,08,40,10.60
2018,04,23,08,41,10.60
2018,04,23,08,42,10.50
2018,04,23,08,43,10.40
2018,04,23,08,44,10.40
2018,04,23,08,45,10.30
2018,04,23,08,46,10.30
2018,04,23,08,47,10.30
2018,04,23,08,48,10.30
2018,04,23,08,49,10.30
2018,04,23,08,50,10.30
2018,04,23,08,51,10.30
2018,04,23,08,52,10.40
2018,04,23,08,53,10.40
2018,04,23,08,54,10.50
2018,04,23,08,55,10.50
2018,04,23,08,56,10.50
2018,04,23,08,57,10.60
2018,04,23,08,58,10.60
2018,04,23,08,59,10.60
2018,04,23,09,00,10.70
2018,04,23,09,01,10.80
2018,04,23,09,02,10.80
2018,04,23,09,03,10.90
2018,04,23,09,04,10.90
2018,04,23,09,05,11.00
2018,04,23,09,06,11.10
2018,04,23,09,07,11.20
2018,04,23,09,08,11.20
2018,04,23,09,09,11.30
2018,04,23,09,10,11.30
2018,04,23,09,11,11.30
2018,04,23,09,12,11.30
2018,04,23,09,13,11.30
2018,04,23,09,14,11.40
2018,04,23,09,15,11.40
2018,04,23,09,16,11.40
2018,04,23,09,17,11.40
2018,04,23,09,18,11.50
2018,04,23,09,19,11.60
2018,04,23,09,20,11.70
2018,04,23,09,21,11.80
2018,04,23,09,22,11.90
2018,04,23,09,23,12.00
2018,04,23,09,24,12.10
2018,04,23,09,25,12.20
2018,04,23,09,26,12.30
2018,04,23,09,27,12.20
2018,04,23,09,28,12.20
2018,04,23,09,29,12.20
2018,04,23,09,30,12.20
2018,04,23,09,31,12.20
2018,04,23,09,32,12.20
2018,04,23,09,33,12.10
2018,04,23,09,34,12.10
2018,04,23,09,35,12.10
2018,04,23,09,36,12.00
2018,04,23,09,37,12.00
2018,04,23,09,38,11.90
2018,04,23,09,39,11.90
2018,04,23,09,40,11.90
2018,04,23,09,41,11.80
2018,04,23,09,42,11.80
2018,04,23,09,43,11.70
2018,04,23,09,44,11.70
2018,04,23,09,45,11.60
2018,04,23,09,46,11.60
2018,04,23,09,47,11.50
2018,04,23,09,48,11.50
2018,04,23,09,49,11.40
2018,04,23,09,50,11.40
2018,04,23,09,51,11.30
2018,04,23,09,52,11.30
2018,04,23,09,53,11.30
2018,04,23,09,54,11.30
2018,04,23,09,55,11.30
2018,04,23,09,56,11.30
2018,04,23,09,57,11.30
2018,04,23,09,58,11.30
2018,04,23,09,59,11.40
2018,04,23,10,00,11.50
2018,04,23,10,01,11.60
2018,04,23,10,02,11.60
2018,04,23,10,03,11.60
2018,04,23,10,04,11.60
2018,04,23,10,05,11.70
2018,04,23,10,06,11.70
2018,04,23,10,07,11.70
2018,04,23,10,08,11.70
2018,04,23,10,09,11.70
2018,04,23,10,10,11.60
2018,04,23,10,11,11.60
2018,04,23,10,12,11.60
2018,04,23,10,13,11.60
2018,04,23,10,14,11.60
2018,04,23,10,15,11.60
2018,04,23,10,16,11.60
2018,04,23,10,17,11.60
2018,04,23,10,18,11.50
2018,04,23,10,19,11.40
2018,04,23,10,20,11.50
2018,04,23,10,21,11.50
2018,04,23,10,22,11.60
2018,04,23,10,23,11.60
2018,04,23,10,24,11.60
2018,04,23,10,25,11.70
2018,04,23,10,26,11.80
2018,04,23,10,27,11.80
2018,04,23,10,28,11.90
2018,04,23,10,29,11.90
2018,04,23,10,30,11.90
2018,04,23,10,31,11.90
2018,04,23,10,32,11.90
2018,04,23,10,33,11.90
2018,04,23,10,34,11.90
2018,04,23,10,35,11.90
2018,04,23,10,36,11.80
2018,04,23,10,37,11.80
2018,04,23,10,38,11.80
2018,04,23,10,39,11.80
2018,04,23,10,40,11.80
2018,04,23,10,41,11.80
2018,04,23,10,42,11.80
2018,04,23,10,43,11.80
2018,04,23,10,44,11.90
2018,04,23,10,45,11.90
2018,04,23,10,46,12.00
2018,04,23,10,47,12.00
2018,04,23,10,48,12.10
2018,04,23,10,49,12.20
2018,04,23,10,50,12.20
2018,04,23,10,51,12.30
2018,04,23,10,52,12.30
2018,04,23,10,53,12.30
2018,04,23,10,54,12.30
2018,04,23,10,55,12.30
2018,04,23,10,56,12.30
2018,04,23,10,57,12.20
2018,04,23,10,58,12.30
2018,04,23,10,59,12.30
2018,04,23,11,00,12.30
2018,04,23,11,01,12.30
2018,04,23,11,02,12.30
2018,04,23,11,03,12.30
2018,04,23,11,04,12.40
2018,04,23,11,05,12.40
2018,04,23,11,06,12.40
2018,04,23,11,07,12.40
2018,04,23,11,08,12.40
2018,04,23,11,09,12.40
2018,04,23,11,10,12.50
2018,04,23,11,11,12.60
2018,04,23,11,12,12.60
2018,04,23,11,13,12.60
2018,04,23,11,14,12.60
2018,04,23,11,15,12.70
2018,04,23,11,16,12.70
2018,04,23,11,17,12.70
2018,04,23,11,18,12.80
2018,04,23,11,19,12.80
2018,04,23,11,20,12.80
2018,04,23,11,21,12.80
2018,04,23,11,22,12.80
2018,04,23,11,23,12.80
2018,04,23,11,24,12.80
2018,04,23,11,25,12.80
2018,04,23,11,26,12.80
2018,04,23,11,27,12.80
2018,04,23,11,28,12.80
2018,04,23,11,29,12.70
2018,04,23,11,30,12.70
2018,04,23,11,31,12.70
2018,04,23,11,32,12.70
2018,04,23,11,33,12.70
2018,04,23,11,34,12.70
2018,04,23,11,35,12.80
2018,04,23,11,36,12.80
2018,04,23,11,37,12.80
2018,04,23,11,38,12.80
2018,04,23,11,39,12.80
2018,04,23,11,40,12.80
2018,04,23,11,41,12.80
2018,04,23,11,42,12.80
2018,04,23,11,43,12.80
2018,04,23,11,44,12.80
2018,04,23,11,45,12.90
2018,04,23,11,46,13.00
2018,04,23,11,47,13.10
2018,04,23,11,48,13.10
2018,04,23,11,49,13.20
2018,04,23,11,50,13.20
2018,04,23,11,51,13.20
2018,04,23,11,52,13.20
2018,04,23,11,53,13.30
2018,04,23,11,54,13.30
2018,04,23,11,55,13.30
2018,04,23,11,56,13.30
2018,04,23,11,57,13.40
2018,04,23,11,58,13.30
2018,04,23,11,59,13.40
2018,04,23,12,00,13.40
2018,04,23,12,01,13.40
2018,04,23,12,02,13.50
2018,04,23,12,03,13.50
2018,04,23,12,04,13.60
2018,04,23,12,05,13.60
2018,04,23,12,06,13.60
2018,04,23,12,07,13.60
2018,04,23,12,08,13.60
2018,04,23,12,09,13.60
2018,04,23,12,10,13.60
2018,04,23,12,11,13.60
2018,04,23,12,12,13.60
2018,04,23,12,13,13.60
2018,04,23,12,14,13.70
2018,04,23,12,15,13.70
2018,04,23,12,16,13.70
2018,04,23,12,17,13.60
2018,04,23,12,18,13.50
2018,04,23,12,19,13.50
2018,04,23,12,20,13.50
2018,04,23,12,21,13.50
2018,04,23,12,22,13.50
2018,04,23,12,23,13.60
2018,04,23,12,24,13.60
2018,04,23,12,25,13.60
2018,04,23,12,26,13.60
2018,04,23,12,27,13.50
2018,04,23,12,28,13.50
2018,04,23,12,29,13.40
2018,04,23,12,30,13.40
2018,04,23,12,31,13.40
2018,04,23,12,32,13.40
2018,04,23,12,33,13.40
2018,04,23,12,34,13.30
2018,04,23,12,35,13.20
2018,04,23,12,36,13.20
2018,04,23,12,37,13.20
2018,04,23,12,38,13.10
2018,04,23,12,39,13.10
2018,04,23,12,40,13.10
2018,04,23,12,41,13.10
2018,04,23,12,42,13.20
2018,04,23,12,43,13.30
2018,04,23,12,44,13.40
2018,04,23,12,45,13.50
2018,04,23,12,46,13.70
2018,04,23,12,47,13.70
2018,04,23,12,48,13.80
2018,04,23,12,49,13.80
2018,04,23,12,50,13.80
2018,04,23,12,51,13.70
2018,04,23,12,52,13.70
2018,04,23,12,53,13.70
2018,04,23,12,54,13.70
2018,04,23,12,55,13.70
2018,04,23,12,56,13.70
2018,04,23,12,57,13.70
2018,04,23,12,58,13.80
2018,04,23,12,59,13.80
2018,04,23,13,00,13.90
2018,04,23,13,01,13.90
2018,04,23,13,02,13.90
2018,04,23,13,03,13.90
2018,04,23,13,04,14.00
2018,04,23,13,05,14.00
2018,04,23,13,06,14.00
2018,04,23,13,07,14.00
2018,04,23,13,08,14.10
2018,04,23,13,09,14.10
2018,04,23,13,10,14.20
2018,04,23,13,11,14.20
2018,04,23,13,12,14.20
2018,04,23,13,13,14.30
2018,04,23,13,14,14.30
2018,04,23,13,15,14.30
2018,04,23,13,16,14.30
2018,04,23,13,17,14.30
2018,04,23,13,18,14.30
2018,04,23,13,19,14.30
2018,04,23,13,20,14.30
2018,04,23,13,21,14.20
2018,04,23,13,22,14.20
2018,04,23,13,23,14.10
2018,04,23,13,24,14.10
2018,04,23,13,25,14.10
2018,04,23,13,26,14.20
2018,04,23,13,27,14.20
2018,04,23,13,28,14.20
2018,04,23,13,29,14.20
2018,04,23,13,30,14.20
2018,04,23,13,31,14.20
2018,04,23,13,32,14.20
2018,04,23,13,33,14.20
2018,04,23,13,34,14.20
2018,04,23,13,35,14.30
2018,04,23,13,36,14.50
2018,04,23,13,37,14.50
2018,04,23,13,38,14.60
2018,04,23,13,39,14.70
2018,04,23,13,40,14.70
2018,04,23,13,41,14.70
2018,04,23,13,42,14.70
2018,04,23,13,43,14.60
2018,04,23,13,44,14.60
2018,04,23,13,45,14.50
2018,04,23,13,46,14.50
2018,04,23,13,47,14.40
2018,04,23,13,48,14.50
2018,04,23,13,49,14.60
2018,04,23,13,50,14.70
2018,04,23,13,51,14.80
2018,04,23,13,52,14.80
2018,04,23,13,53,14.80
2018,04,23,13,54,14.80
2018,04,23,13,55,14.70
2018,04,23,13,56,14.70
2018,04,23,13,57,14.70
2018,04,23,13,58,14.80
2018,04,23,13,59,14.80
2018,04,23,14,00,14.80
2018,04,23,14,01,14.80
2018,04,23,14,02,14.80
2018,04,23,14,03,14.90
2018,04,23,14,04,15.00
2018,04,23,14,05,15.00
2018,04,23,14,06,15.00
2018,04,23,14,07,15.00
2018,04,23,14,08,15.00
2018,04,23,14,09,15.00
2018,04,23,14,10,15.00
2018,04,23,14,11,14.90
2018,04,23,14,12,14.80
2018,04,23,14,13,14.80
2018,04,23,14,14,14.90
2018,04,23,14,15,15.00
2018,04,23,14,16,15.00
2018,04,23,14,17,15.00
2018,04,23,14,18,15.00
2018,04,23,14,19,15.00
2018,04,23,14,20,15.00
2018,04,23,14,21,15.00
2018,04,23,14,22,15.10
2018,04,23,14,23,15.20
2018,04,23,14,24,15.20
2018,04,23,14,25,15.30
2018,04,23,14,26,15.30
2018,04,23,14,27,15.30
2018,04,23,14,28,15.30
2018,04,23,14,29,15.30
2018,04,23,14,30,15.30
2018,04,23,14,31,15.20
2018,04,23,14,32,15.10
2018,04,23,14,33,15.00
2018,04,23,14,34,15.00
2018,04,23,14,35,14.80
2018,04,23,14,36,14.80
2018,04,23,14,37,14.70
2018,04,23,14,38,14.70
2018,04,23,14,39,14.70
2018,04,23,14,40,14.70
2018,04,23,14,41,14.70
2018,04,23,14,42,14.80
2018,04,23,14,43,14.80
2018,04,23,14,44,14.90
2018,04,23,14,45,15.00
2018,04,23,14,46,15.00
2018,04,23,14,47,15.00
2018,04,23,14,48,15.00
2018,04,23,14,49,15.00
2018,04,23,14,50,15.10
2018,04,23,14,51,15.20
2018,04,23,14,52,15.10
2018,04,23,14,53,15.00
2018,04,23,14,54,15.00
2018,04,23,14,55,15.10
2018,04,23,14,56,15.10
2018,04,23,14,57,15.10
2018,04,23,14,58,15.00
2018,04,23,14,59,15.10
2018,04,23,15,00,15.10
2018,04,23,15,01,15.00
2018,04,23,15,02,15.00
2018,04,23,15,03,15.00
2018,04,23,15,04,15.00
2018,04,23,15,05,15.00
2018,04,23,15,06,15.00
2018,04,23,15,07,15.00
2018,04,23,15,08,15.00
2018,04,23,15,09,15.00
2018,04,23,15,10,15.00
2018,04,23,15,11,15.00
2018,04,23,15,12,15.00
2018,04,23,15,13,15.00
2018,04,23,15,14,15.00
2018,04,23,15,15,15.00
2018,04,23,15,16,15.00
2018,04,23,15,17,15.10
2018,04,23,15,18,15.10
2018,04,23,15,19,15.30
2018,04,23,15,20,15.40
2018,04,23,15,21,15.50
2018,04,23,15,22,15.60
2018,04,23,15,23,15.60
2018,04,23,15,24,15.60
2018,04,23,15,25,15.60
2018,04,23,15,26,15.50
2018,04,23,15,27,15.50
2018,04,23,15,28,15.50
2018,04,23,15,29,15.50
2018,04,23,15,30,15.50
2018,04,23,15,31,15.50
2018,04,23,15,32,15.50
2018,04,23,15,33,15.60
2018,04,23,15,34,15.60
2018,04,23,15,35,15.60
2018,04,23,15,36,15.60
2018,04,23,15,37,15.60
2018,04,23,15,38,15.70
2018,04,23,15,39,15.70
2018,04,23,15,40,15.70
2018,04,23,15,41,15.70
2018,04,23,15,42,15.70
2018,04,23,15,43,15.80
2018,04,23,15,44,15.90
2018,04,23,15,45,15.90
2018,04,23,15,46,15.90
2018,04,23,15,47,15.90
2018,04,23,15,48,15.90
2018,04,23,15,49,15.80
2018,04,23,15,50,15.80
2018,04,23,15,51,15.90
2018,04,23,15,52,15.90
2018,04,23,15,53,15.90
2018,04,23,15,54,15.90
2018,04,23,15,55,15.90
2018,04,23,15,56,15.90
2018,04,23,15,57,15.80
2018,04,23,15,58,15.80
2018,04,23,15,59,15.80
2018,04,23,16,00,15.80
2018,04,23,16,01,15.80
2018,04,23,16,02,15.80
2018,04,23,16,03,15.80
2018,04,23,16,04,15.80
2018,04,23,16,05,15.80
2018,04,23,16,06,15.70
2018,04,23,16,07,15.60
2018,04,23,16,08,15.50
2018,04,23,16,09,15.50
2018,04,23,16,10,15.40
2018,04,23,16,11,15.40
2018,04,23,16,12,15.40
2018,04,23,16,13,15.40
2018,04,23,16,14,15.40
2018,04,23,16,15,15.40
2018,04,23,16,16,15.40
2018,04,23,16,17,15.40
2018,04,23,16,18,15.50
2018,04,23,16,19,15.50
2018,04,23,16,20,15.60
2018,04,23,16,21,15.70
2018,04,23,16,22,15.80
2018,04,23,16,23,15.80
2018,04,23,16,24,15.90
2018,04,23,16,25,15.90
2018,04,23,16,26,15.90
2018,04,23,16,27,15.90
2018,04,23,16,28,15.90
2018,04,23,16,29,15.90
2018,04,23,16,30,15.90
2018,04,23,16,31,15.80
2018,04,23,16,32,15.80
2018,04,23,16,33,15.80
2018,04,23,16,34,15.80
2018,04,23,16,35,15.80
2018,04,23,16,36,15.70
2018,04,23,16,37,15.60
2018,04,23,16,38,15.50
2018,04,23,16,39,15.40
2018,04,23,16,40,15.30
2018,04,23,16,41,15.30
2018,04,23,16,42,15.30
2018,04,23,16,43,15.30
2018,04,23,16,44,15.30
2018,04,23,16,45,15.30
2018,04,23,16,46,15.30
2018,04,23,16,47,15.30
2018,04,23,16,48,15.30
2018,04,23,16,49,15.30
2018,04,23,16,50,15.30
2018,04,23,16,51,15.30
2018,04,23,16,52,15.30
2018,04,23,16,53,15.30
2018,04,23,16,54,15.30
2018,04,23,16,55,15.30
2018,04,23,16,56,15.30
2018,04,23,16,57,15.40
2018,04,23,16,58,15.40
2018,04,23,16,59,15.50
2018,04,23,17,00,15.60
2018,04,23,17,01,15.60
2018,04,23,17,02,15.60
2018,04,23,17,03,15.60
2018,04,23,17,04,15.60
2018,04,23,17,05,15.70
2018,04,23,17,06,15.70
2018,04,23,17,07,15.70
2018,04,23,17,08,15.70
2018,04,23,17,09,15.70
2018,04,23,17,10,15.60
2018,04,23,17,11,15.60
2018,04,23,17,12,15.50
2018,04,23,17,13,15.50
2018,04,23,17,14,15.40
2018,04,23,17,15,15.40
2018,04,23,17,16,15.40
2018,04,23,17,17,15.40
2018,04,23,17,18,15.40
2018,04,23,17,19,15.50
2018,04,23,17,20,15.50
2018,04,23,17,21,15.60
2018,04,23,17,22,15.70
2018,04,23,17,23,15.70
2018,04,23,17,24,15.80
2018,04,23,17,25,15.80
2018,04,23,17,26,15.80
2018,04,23,17,27,15.80
2018,04,23,17,28,15.80
2018,04,23,17,29,15.90
2018,04,23,17,30,15.90
2018,04,23,17,31,16.00
2018,04,23,17,32,16.00
2018,04,23,17,33,16.10
2018,04,23,17,34,16.10
2018,04,23,17,35,16.10
2018,04,23,17,36,16.10
2018,04,23,17,37,16.10
2018,04,23,17,38,16.00
2018,04,23,17,39,16.00
2018,04,23,17,40,16.00